Total_Precipitation_Accumulation
0.42 0.83 1.08 0.95 0.86 0.84 0.79 0.80 0.85 0.74 0.62 0.65 0.61 0.55 0.59 0.63 0.69 0.63 0.65 0.63 0.52 0.49 0.54 0.52 0.48 0.51 0.55 0.68 0.81 1.01 1.40 1.83 2.01 1.88 1.85 1.89 1.94 1.87 1.76 1.74 1.73 1.79 1.79 1.78
0.49 0.62 0.50 0.50 0.56 0.66 0.73 0.80 0.84 0.77 0.54 0.53 0.53 0.48 0.49 0.55 0.58 0.55 0.52 0.53 0.48 0.46 0.45 0.43 0.41 0.46 0.50 0.69 0.87 1.00 1.34 1.80 2.01 2.13 2.21 2.37 2.52 2.37 2.23 2.23 2.20 2.25 2.27 2.44
0.41 0.37 0.30 0.41 0.58 0.70 0.74 0.76 0.77 0.71 0.55 0.49 0.49 0.53 0.48 0.52 0.46 0.46 0.46 0.46 0.41 0.35 0.35 0.38 0.39 0.44 0.48 0.61 0.78 0.93 1.17 1.49 1.83 2.10 2.32 2.57 2.77 2.74 2.63 2.47 2.45 2.51 2.58 2.72
0.38 0.31 0.32 0.40 0.49 0.61 0.77 0.53 0.50 0.50 0.64 0.65 0.51 0.78 0.57 0.54 0.50 0.45 0.45 0.44 0.41 0.35 0.34 0.40 0.40 0.44 0.48 0.58 0.70 0.88 1.12 1.36 1.61 1.84 2.20 2.62 2.89 2.98 2.89 2.79 2.74 2.73 2.74 2.77
0.36 0.28 0.31 0.36 0.37 0.46 0.59 0.46 0.46 0.49 0.59 0.56 0.40 0.56 0.56 0.50 0.53 0.48 0.44 0.41 0.39 0.36 0.37 0.42 0.45 0.51 0.57 0.64 0.71 0.86 1.06 1.32 1.55 1.76 2.09 2.48 2.74 2.94 3.05 2.87 2.73 2.76 2.76 2.78
0.29 0.22 0.25 0.31 0.33 0.36 0.47 0.51 0.50 0.54 0.61 0.67 0.33 0.48 0.62 0.47 0.44 0.45 0.41 0.36 0.38 0.41 0.44 0.49 0.61 0.70 0.75 0.72 0.78 0.90 1.04 1.23 1.40 1.52 1.72 1.95 2.30 2.53 2.83 2.80 2.70 2.81 2.77 2.68
0.36 0.30 0.25 0.27 0.34 0.37 0.45 0.73 0.97 1.00 0.95 0.64 0.28 0.43 0.59 0.45 0.38 0.39 0.40 0.38 0.41 0.44 0.47 0.57 0.75 0.87 0.93 0.86 0.82 0.90 1.09 1.18 1.27 1.36 1.43 1.57 1.82 1.94 2.28 2.58 2.54 2.43 2.48 2.53
0.43 0.42 0.26 0.25 0.32 0.37 0.39 0.63 1.02 1.19 1.03 0.65 0.43 0.61 0.65 0.50 0.42 0.38 0.36 0.38 0.42 0.47 0.55 0.73 0.94 1.06 1.06 0.98 0.91 0.98 1.17 1.24 1.28 1.30 1.33 1.43 1.52 1.56 1.73 1.92 2.01 2.01 2.04 2.27
0.44 0.37 0.23 0.24 0.24 0.27 0.37 0.44 0.51 0.74 0.70 0.72 0.66 0.73 0.66 0.45 0.43 0.44 0.47 0.50 0.60 0.68 0.76 0.91 1.09 1.25 1.15 1.00 0.93 1.00 1.15 1.30 1.32 1.35 1.42 1.51 1.50 1.44 1.52 1.51 1.62 1.79 1.80 1.87
0.46 0.41 0.27 0.25 0.27 0.27 0.28 0.35 0.53 0.80 1.04 1.05 0.81 0.81 0.81 0.67 0.60 0.56 0.61 0.64 0.76 0.88 0.96 1.08 1.24 1.32 1.24 1.07 0.98 1.03 1.15 1.28 1.50 1.62 1.56 1.54 1.60 1.62 1.82 1.83 1.65 1.58 1.73 1.78
0.58 0.58 0.35 0.30 0.28 0.29 0.33 0.44 0.61 0.84 0.89 1.20 1.32 1.17 0.90 0.82 0.78 0.80 0.84 0.87 0.92 1.07 1.09 1.10 1.25 1.34 1.27 1.07 1.00 0.99 1.05 1.17 1.32 1.37 1.41 1.38 1.47 1.58 1.84 2.03 1.98 1.78 1.75 1.76
0.55 0.74 0.53 0.34 0.31 0.33 0.41 0.54 0.79 1.23 1.18 1.07 1.30 1.24 0.86 0.81 0.83 0.82 0.83 0.83 0.87 0.98 1.00 1.07 1.16 1.13 1.08 0.93 0.85 0.85 0.87 0.99 1.14 1.16 1.23 1.31 1.35 1.46 1.56 1.68 1.71 1.64 1.53 1.49
0.73 0.98 0.98 0.78 0.69 0.54 0.61 0.63 0.74 0.98 1.14 1.16 1.34 1.23 0.80 0.73 0.70 0.70 0.74 0.77 0.79 0.78 0.79 0.85 0.94 0.91 0.92 0.91 0.89 0.86 0.84 0.92 1.00 1.07 1.17 1.29 1.30 1.31 1.29 1.32 1.29 1.31 1.31 1.34
0.74 0.83 0.94 1.01 0.92 0.83 0.79 0.68 0.65 0.91 1.25 1.13 1.05 0.98 0.77 0.68 0.66 0.70 0.72 0.73 0.73 0.66 0.60 0.66 0.72 0.76 0.86 0.89 0.90 0.87 0.80 0.88 1.00 1.18 1.27 1.34 1.36 1.37 1.34 1.31 1.29 1.30 1.29 1.31
0.64 0.66 0.51 0.46 0.46 0.59 0.63 0.56 0.57 0.68 0.80 0.99 0.91 0.83 0.68 0.65 0.71 0.77 0.74 0.67 0.63 0.55 0.49 0.54 0.58 0.68 0.72 0.78 0.83 0.82 0.79 0.86 0.93 1.08 1.21 1.28 1.38 1.45 1.38 1.26 1.20 1.27 1.26 1.25
0.53 0.60 0.44 0.35 0.32 0.43 0.50 0.49 0.51 0.54 0.60 0.73 0.78 0.76 0.60 0.56 0.57 0.62 0.58 0.51 0.50 0.50 0.45 0.46 0.51 0.59 0.61 0.64 0.67 0.67 0.75 0.93 0.96 1.01 1.08 1.28 1.40 1.35 1.30 1.20 1.17 1.17 1.17 1.18
0.50 0.63 0.71 0.55 0.39 0.47 0.71 0.66 0.67 0.69 0.64 0.69 0.65 0.53 0.37 0.37 0.43 0.52 0.48 0.44 0.47 0.46 0.44 0.43 0.43 0.44 0.46 0.51 0.61 0.68 0.77 0.89 0.93 0.96 1.10 1.30 1.34 1.25 1.18 1.21 1.24 1.16 1.15 1.20
0.41 0.63 0.88 0.69 0.65 0.99 1.04 0.75 0.71 0.69 0.51 0.40 0.34 0.28 0.27 0.37 0.37 0.39 0.40 0.38 0.39 0.39 0.37 0.35 0.33 0.33 0.37 0.43 0.52 0.62 0.70 0.76 0.82 0.88 1.01 1.19 1.23 1.21 1.24 1.22 1.21 1.13 1.08 1.07
0.35 0.63 0.94 0.84 0.86 0.96 0.83 0.58 0.52 0.55 0.45 0.25 0.23 0.24 0.23 0.29 0.32 0.31 0.33 0.31 0.30 0.29 0.25 0.25 0.25 0.29 0.31 0.32 0.38 0.47 0.54 0.59 0.63 0.73 0.89 1.01 1.04 1.13 1.17 1.09 1.09 1.05 0.97 0.97
0.48 0.68 1.05 1.02 1.13 1.04 0.62 0.38 0.36 0.48 0.63 0.28 0.21 0.22 0.20 0.22 0.32 0.32 0.25 0.24 0.23 0.21 0.20 0.22 0.22 0.25 0.29 0.28 0.31 0.38 0.48 0.54 0.57 0.69 0.82 0.93 0.95 0.97 1.01 1.06 1.05 1.04 1.01 0.97
0.54 0.71 0.89 0.96 1.19 0.95 0.47 0.33 0.37 0.69 0.79 0.40 0.28 0.25 0.22 0.21 0.23 0.21 0.19 0.19 0.19 0.18 0.18 0.20 0.22 0.27 0.29 0.30 0.32 0.35 0.44 0.48 0.54 0.59 0.70 0.78 0.82 0.90 1.00 1.10 1.13 1.16 1.13 1.05
0.66 0.74 0.75 0.86 1.11 1.00 0.48 0.43 0.58 0.66 0.49 0.41 0.34 0.29 0.23 0.18 0.14 0.12 0.12 0.14 0.15 0.15 0.16 0.20 0.23 0.32 0.35 0.36 0.35 0.36 0.40 0.44 0.49 0.50 0.58 0.72 0.82 0.92 1.01 1.12 1.17 1.17 1.19 1.19
0.68 0.75 0.81 0.92 1.03 0.69 0.48 0.53 0.56 0.48 0.44 0.33 0.27 0.23 0.20 0.17 0.14 0.11 0.10 0.12 0.14 0.16 0.19 0.22 0.28 0.35 0.35 0.37 0.38 0.39 0.43 0.46 0.48 0.51 0.53 0.60 0.66 0.73 0.84 0.96 1.08 1.13 1.14 1.16
0.53 0.50 0.62 0.72 0.61 0.40 0.38 0.41 0.38 0.35 0.32 0.27 0.24 0.20 0.18 0.15 0.14 0.14 0.13 0.13 0.13 0.15 0.17 0.22 0.28 0.33 0.32 0.34 0.37 0.38 0.40 0.43 0.48 0.53 0.54 0.54 0.54 0.58 0.67 0.83 0.91 0.94 0.98 1.05
0.47 0.54 0.63 0.70 0.61 0.44 0.36 0.35 0.32 0.30 0.24 0.23 0.26 0.24 0.21 0.18 0.14 0.13 0.12 0.12 0.12 0.14 0.14 0.19 0.27 0.32 0.31 0.31 0.33 0.35 0.34 0.37 0.41 0.47 0.52 0.57 0.57 0.59 0.65 0.73 0.87 0.95 0.99 1.07
0.36 0.49 0.68 0.76 0.63 0.58 0.41 0.32 0.27 0.26 0.23 0.20 0.21 0.23 0.24 0.25 0.23 0.16 0.14 0.12 0.14 0.15 0.17 0.22 0.28 0.32 0.32 0.30 0.30 0.34 0.34 0.37 0.44 0.49 0.51 0.55 0.56 0.62 0.69 0.76 0.87 0.96 0.97 0.99